• In Czech Republic
  • List of Countries
  • For 7 days
  • Water Temperature
  • Satellite Maps
  • Weather Map
  • Weather Widgets
  • user-avatar
    Login

    Hourly Weather Sana

    Today, 22 January, Monday

    Time Temperature Precipitation Wind Pressure Humidity
    00:00 +13°C° 0 mm 1 mps 581 mmHg 44%
    01:00 +12°C° 0 mm 1 mps 580 mmHg 44%
    02:00 +11°C° 0 mm 1 mps 580 mmHg 45%
    03:00 +11°C° 0 mm 1 mps 579 mmHg 44%
    04:00 +10°C° 0 mm 1 mps 579 mmHg 45%
    05:00 +10°C° 0 mm 1 mps 579 mmHg 45%
    06:00 +10°C° 0 mm 1 mps 579 mmHg 46%
    07:00 +11°C° 0 mm 1 mps 580 mmHg 42%
    08:00 +12°C° 0 mm 0 mps 581 mmHg 38%
    09:00 +14°C° 0 mm 0 mps 582 mmHg 34%
    10:00 +16°C° 0 mm 1 mps 582 mmHg 30%
    11:00 +19°C° 0 mm 1 mps 582 mmHg 27%
    12:00 +19°C° 0 mm 2 mps 583 mmHg 23%
    13:00 +20°C° 0 mm 2 mps 582 mmHg 23%
    14:00 +20°C° 0 mm 3 mps 582 mmHg 23%
    15:00 +21°C° 0 mm 4 mps 582 mmHg 22%
    16:00 +20°C° 0 mm 3 mps 582 mmHg 26%
    17:00 +19°C° 0 mm 3 mps 581 mmHg 30%
    18:00 +18°C° 0 mm 3 mps 581 mmHg 33%
    19:00 +17°C° 0 mm 2 mps 581 mmHg 36%
    20:00 +16°C° 0 mm 1 mps 581 mmHg 39%
    21:00 +15°C° 0 mm 1 mps 580 mmHg 42%
    22:00 +15°C° 0 mm 1 mps 580 mmHg 43%
    23:00 +13°C° 0 mm 0 mps 580 mmHg 44%

    Tomorrow, 23 January, Tuesday

    Time Temperature Precipitation Wind Pressure Humidity
    00:00 +12°C° 0 mm 0 mps 579 mmHg 45%
    01:00 +12°C° 0 mm 0 mps 579 mmHg 46%
    02:00 +11°C° 0 mm 0 mps 578 mmHg 48%
    03:00 +11°C° 0 mm 0 mps 578 mmHg 49%
    04:00 +10°C° 0 mm 0 mps 578 mmHg 50%
    05:00 +10°C° 0 mm 0 mps 577 mmHg 51%
    06:00 +9°C° 0 mm 0 mps 577 mmHg 52%
    07:00 +11°C° 0 mm 0 mps 578 mmHg 44%
    08:00 +13°C° 0 mm 0 mps 580 mmHg 36%
    09:00 +16°C° 0 mm 0 mps 581 mmHg 28%
    10:00 +19°C° 0 mm 1 mps 581 mmHg 24%
    11:00 +20°C° 0 mm 1 mps 582 mmHg 21%
    12:00 +21°C° 0 mm 2 mps 582 mmHg 17%
    13:00 +21°C° 0 mm 2 mps 582 mmHg 17%
    14:00 +22°C° 0 mm 3 mps 582 mmHg 17%
    15:00 +22°C° 0 mm 3 mps 581 mmHg 18%
    16:00 +21°C° 0 mm 3 mps 581 mmHg 22%
    17:00 +20°C° 0 mm 3 mps 581 mmHg 26%
    18:00 +18°C° 0 mm 3 mps 580 mmHg 30%
    19:00 +17°C° 0 mm 2 mps 580 mmHg 33%
    20:00 +16°C° 0 mm 2 mps 580 mmHg 37%
    21:00 +16°C° 0 mm 1 mps 580 mmHg 40%
    22:00 +15°C° 0 mm 1 mps 580 mmHg 42%
    23:00 +13°C° 0 mm 0 mps 579 mmHg 43%

    Day after tomorrow, 24 January, Wednesday

    Time Temperature Precipitation Wind Pressure Humidity
    00:00 +12°C° 0 mm 0 mps 579 mmHg 45%
    01:00 +12°C° 0 mm 0 mps 578 mmHg 47%
    02:00 +11°C° 0 mm 0 mps 578 mmHg 50%
    03:00 +11°C° 0 mm 0 mps 577 mmHg 52%
    04:00 +10°C° 0 mm 0 mps 577 mmHg 55%
    05:00 +10°C° 0 mm 0 mps 577 mmHg 57%
    06:00 +9°C° 0 mm 0 mps 577 mmHg 60%
    07:00 +11°C° 0 mm 0 mps 578 mmHg 51%
    08:00 +13°C° 0 mm 0 mps 580 mmHg 42%
    09:00 +16°C° 0 mm 1 mps 581 mmHg 34%
    10:00 +19°C° 0 mm 1 mps 581 mmHg 29%
    11:00 +19°C° 0 mm 2 mps 582 mmHg 25%
    12:00 +21°C° 0 mm 2 mps 582 mmHg 21%
    13:00 +21°C° 0 mm 2 mps 582 mmHg 21%
    14:00 +21°C° 0 mm 3 mps 581 mmHg 21%
    15:00 +22°C° 0 mm 3 mps 581 mmHg 22%
    16:00 +21°C° 0 mm 3 mps 581 mmHg 26%
    17:00 +19°C° 0 mm 3 mps 580 mmHg 29%
    18:00 +18°C° 0 mm 3 mps 580 mmHg 33%
    19:00 +17°C° 0 mm 2 mps 580 mmHg 36%
    20:00 +16°C° 0 mm 2 mps 580 mmHg 38%
    21:00 +15°C° 0 mm 1 mps 580 mmHg 41%
    22:00 +14°C° 0 mm 1 mps 580 mmHg 42%
    23:00 +14°C° 0 mm 1 mps 579 mmHg 42%

    25 January, Thursday

    Time Temperature Precipitation Wind Pressure Humidity
    00:00 +13°C° 0 mm 1 mps 579 mmHg 43%
    01:00 +11°C° 0 mm 0 mps 578 mmHg 43%
    02:00 +11°C° 0 mm 0 mps 578 mmHg 43%
    03:00 +10°C° 0 mm 0 mps 577 mmHg 44%
    04:00 +10°C° 0 mm 0 mps 577 mmHg 43%
    05:00 +9°C° 0 mm 0 mps 577 mmHg 42%
    06:00 +9°C° 0 mm 0 mps 577 mmHg 42%
    07:00 +11°C° 0 mm 0 mps 578 mmHg 36%
    08:00 +13°C° 0 mm 0 mps 580 mmHg 30%
    09:00 +15°C° 0 mm 0 mps 581 mmHg 24%
    10:00 +19°C° 0 mm 1 mps 582 mmHg 22%
    11:00 +21°C° 0 mm 1 mps 582 mmHg 19%
    12:00 +21°C° 0 mm 2 mps 582 mmHg 16%
    13:00 +21°C° 0 mm 2 mps 582 mmHg 17%
    14:00 +22°C° 0 mm 3 mps 581 mmHg 18%
    15:00 +22°C° 0 mm 3 mps 581 mmHg 19%
    16:00 +21°C° 0 mm 3 mps 580 mmHg 22%
    17:00 +19°C° 0 mm 3 mps 580 mmHg 26%
    18:00 +18°C° 0 mm 2 mps 580 mmHg 29%
    19:00 +17°C° 0 mm 2 mps 580 mmHg 30%
    20:00 +16°C° 0 mm 1 mps 580 mmHg 31%
    21:00 +15°C° 0 mm 1 mps 580 mmHg 33%
    22:00 +14°C° 0 mm 1 mps 579 mmHg 32%
    23:00 +13°C° 0 mm 1 mps 579 mmHg 32%

    26 January, Friday

    Time Temperature Precipitation Wind Pressure Humidity
    00:00 +11°C° 0 mm 0 mps 578 mmHg 31%
    01:00 +11°C° 0 mm 0 mps 577 mmHg 34%
    02:00 +10°C° 0 mm 0 mps 577 mmHg 36%
    03:00 +9°C° 0 mm 0 mps 576 mmHg 39%
    04:00 +9°C° 0 mm 0 mps 576 mmHg 41%
    05:00 +8°C° 0 mm 0 mps 576 mmHg 44%
    06:00 +8°C° 0 mm 0 mps 576 mmHg 47%
    07:00 +10°C° 0 mm 0 mps 578 mmHg 41%
    08:00 +13°C° 0 mm 0 mps 580 mmHg 34%
    09:00 +15°C° 0 mm 0 mps 581 mmHg 28%
    10:00 +19°C° 0 mm 1 mps 582 mmHg 24%
    11:00 +20°C° 0 mm 1 mps 582 mmHg 20%
    12:00 +21°C° 0 mm 2 mps 582 mmHg 16%
    13:00 +21°C° 0 mm 2 mps 582 mmHg 17%
    14:00 +23°C° 0 mm 2 mps 581 mmHg 19%
    15:00 +22°C° 0 mm 3 mps 581 mmHg 20%
    16:00 +20°C° 0 mm 3 mps 581 mmHg 24%
    17:00 +19°C° 0 mm 2 mps 580 mmHg 29%
    18:00 +18°C° 0 mm 2 mps 580 mmHg 33%
    19:00 +16°C° 0 mm 2 mps 580 mmHg 35%
    20:00 +15°C° 0 mm 1 mps 580 mmHg 37%
    21:00 +14°C° 0 mm 1 mps 580 mmHg 39%
    22:00 +14°C° 0 mm 1 mps 579 mmHg 42%
    23:00 +12°C° 0 mm 0 mps 579 mmHg 44%

    27 January, Saturday

    Time Temperature Precipitation Wind Pressure Humidity
    00:00 +11°C° 0 mm 0 mps 578 mmHg 47%
    01:00 +11°C° 0 mm 0 mps 578 mmHg 51%
    02:00 +11°C° 0 mm 1 mps 577 mmHg 55%
    03:00 +11°C° 0 mm 1 mps 577 mmHg 59%
    04:00 +11°C° 0 mm 1 mps 577 mmHg 65%
    05:00 +10°C° 0 mm 1 mps 577 mmHg 70%
    06:00 +10°C° 0 mm 1 mps 577 mmHg 76%
    07:00 +12°C° 0 mm 1 mps 578 mmHg 68%
    08:00 +14°C° 0 mm 1 mps 579 mmHg 60%
    09:00 +15°C° 0 mm 1 mps 581 mmHg 51%
    10:00 +18°C° 0 mm 1 mps 581 mmHg 44%
    11:00 +20°C° 0 mm 1 mps 581 mmHg 36%
    12:00 +20°C° 0 mm 2 mps 582 mmHg 28%
    13:00 +21°C° 0 mm 2 mps 581 mmHg 29%
    14:00 +21°C° 0 mm 2 mps 581 mmHg 30%
    15:00 +21°C° 0 mm 3 mps 581 mmHg 31%
    16:00 +20°C° 0 mm 3 mps 581 mmHg 36%
    17:00 +19°C° 0 mm 2 mps 580 mmHg 41%
    18:00 +18°C° 0 mm 2 mps 580 mmHg 46%
    19:00 +17°C° 0 mm 2 mps 580 mmHg 49%
    20:00 +16°C° 0 mm 1 mps 580 mmHg 52%
    21:00 +16°C° 0 mm 1 mps 580 mmHg 54%
    22:00 +15°C° 0 mm 1 mps 580 mmHg 57%
    23:00 +15°C° 0 mm 1 mps 579 mmHg 59%
    Show more